Change the Weather History Date:

Thursday, February 21, 2013

  Actual Average Record
Temperature  
Mean Temperature 28 °F -  
Max Temperature 30 °F 34 °F 55 °F (1981)
Min Temperature 25 °F 18 °F -2 °F (2015)
Degree Days  
Heating Degree Days 38    
Moisture  
Dew Point 11 °F    
Average Humidity 51    
Maximum Humidity 60    
Minimum Humidity 43    
Precipitation  
Precipitation 0.00 in - - ()
Sea Level Pressure  
Sea Level Pressure 29.86 in    
Wind  
Wind Speed 13 mph (WNW)    
Max Wind Speed 21 mph    
Max Gust Speed 32 mph    
Visibility 10 miles    
Events      
Averages and records for this station are not official NWS values.
T = Trace of Precipitation, MM = Missing Value Source: NWS Daily Summary

Daily Weather History Graph

Daily Weather History Graph

Search for Another Location

Airport or City:

Trip Planner

Search our weather history database for the weather conditions in past years. The results will help you decide how hot, cold, wet, or windy it might be!

Date:

Astronomy

Feb. 21, 2013 Rise Set
Actual Time 6:31 AM EST 5:23 PM EST
Civil Twilight 6:02 AM EST 5:52 PM EST
Nautical Twilight 5:30 AM EST 6:25 PM EST
Astronomical Twilight 4:57 AM EST 6:57 PM EST
Moon 1:32 PM EST (2/21) 3:37 AM EST (2/21)
Length of Visible Light 11h 49m
Length of Day
10h 52m
Waxing Gibbous, 83% of the Moon is Illuminated
Feb 21
Waxing Gibbous
Feb 25
Full
Mar 4
Last Quarter
Mar 11
New
Mar 19
First Quarter

Hourly Weather History & Observations

Time (EST) Temp. Windchill Dew Point Humidity Pressure Visibility Wind Dir Wind Speed Gust Speed Precip Events Conditions
12:53 AM 27.0 °F 18.0 °F 12.0 °F 53% 29.74 in 10.0 mi West 9.2 mph - N/A   Clear
1:53 AM 26.1 °F 16.8 °F 12.0 °F 55% 29.75 in 10.0 mi West 9.2 mph - N/A   Partly Cloudy
2:53 AM 26.1 °F 17.6 °F 12.0 °F 55% 29.74 in 10.0 mi West 8.1 mph - N/A   Scattered Clouds
3:53 AM 26.1 °F 15.6 °F 12.0 °F 55% 29.75 in 10.0 mi West 11.5 mph - N/A   Clear
4:53 AM 25.0 °F 13.1 °F 10.9 °F 55% 29.75 in 10.0 mi WSW 13.8 mph - N/A   Clear
5:53 AM 26.1 °F 16.2 °F 10.9 °F 53% 29.76 in 10.0 mi West 10.4 mph 18.4 mph N/A   Clear
6:53 AM 25.0 °F 15.5 °F 10.0 °F 53% 29.78 in 10.0 mi West 9.2 mph 19.6 mph N/A   Mostly Cloudy
7:53 AM 26.1 °F 14.5 °F 10.0 °F 51% 29.79 in 10.0 mi WNW 13.8 mph 23.0 mph N/A   Mostly Cloudy
8:53 AM 26.1 °F 14.0 °F 7.0 °F 44% 29.78 in 10.0 mi NW 15.0 mph 21.9 mph N/A   Scattered Clouds
9:53 AM 28.0 °F 18.6 °F 8.1 °F 43% 29.78 in 10.0 mi NW 10.4 mph - N/A   Partly Cloudy
10:53 AM 28.0 °F 14.9 °F 8.1 °F 43% 29.79 in 10.0 mi NW 19.6 mph 28.8 mph N/A   Clear
11:53 AM 28.9 °F 17.3 °F 9.0 °F 43% 29.78 in 10.0 mi WNW 16.1 mph 32.2 mph N/A   Clear
12:53 PM 28.9 °F 15.8 °F 10.9 °F 47% 29.79 in 10.0 mi NW 20.7 mph 29.9 mph N/A   Clear
1:53 PM 30.0 °F 19.5 °F 10.9 °F 45% 29.80 in 10.0 mi NW 13.8 mph 27.6 mph N/A   Clear
2:53 PM 30.0 °F 17.9 °F 12.0 °F 47% 29.82 in 10.0 mi NW 18.4 mph 27.6 mph N/A   Mostly Cloudy
3:53 PM 30.0 °F 19.1 °F 10.9 °F 45% 29.85 in 10.0 mi NW 15.0 mph 27.6 mph N/A   Overcast
4:53 PM 28.9 °F 16.9 °F 10.9 °F 47% 29.89 in 10.0 mi NW 17.3 mph 31.1 mph N/A   Overcast
5:53 PM 28.0 °F 14.9 °F 10.9 °F 49% 29.94 in 10.0 mi NW 19.6 mph 31.1 mph N/A   Overcast
6:53 PM 26.1 °F 13.1 °F 10.9 °F 53% 29.98 in 10.0 mi NW 17.3 mph 24.2 mph N/A   Partly Cloudy
7:53 PM 26.1 °F 13.6 °F 10.9 °F 53% 30.02 in 10.0 mi NNW 16.1 mph 26.5 mph N/A   Mostly Cloudy
8:53 PM 26.1 °F 16.2 °F 12.0 °F 55% 30.06 in 10.0 mi NW 10.4 mph 24.2 mph N/A   Partly Cloudy
9:53 PM 26.1 °F 13.6 °F 12.0 °F 55% 30.09 in 10.0 mi NW 16.1 mph - N/A   Clear
10:53 PM 26.1 °F 14.5 °F 12.9 °F 58% 30.09 in 10.0 mi NNW 13.8 mph - N/A   Clear
11:53 PM 26.1 °F 15.0 °F 14.0 °F 60% 30.14 in 10.0 mi NW 12.7 mph - N/A   Clear